sat.trackr.live / text

‹ back to catalog

FLOCK 4BE-25

NORAD 60487 · 2024-149V

PAYLOAD ACTIVE UNKNOWN

§ Identity

Operator
Country
US
Launch date
2024-08-16
Launch site
AFWTR
Launch vehicle
Mass (kg)
RCS (m²)

Purposes: earth_obs

External: N2YO · Heavens-Above · Gunter

§ Orbital elements

Epoch: 2026-09-19T22:52:32.090016Z

Period
93.41 min
Inclination
97.3739°
Eccentricity
0.0001041
Mean motion
15.41548821 rev/d
Perigee alt
440.8 km
Apogee alt
442.2 km
Semi-major
6,819.7 km
B*
5.5912e-4
RAAN
346.8792°
Arg perigee
260.4749°
Mean anomaly
99.6381°
Rev number
11,682

§ Raw data

FLOCK 4BE-251 60487U 24149V   26262.95314919  .00023433  00000+0  55912-3 0  99932 60487  97.3739 346.8792 0001041 260.4749  99.6381 15.41548821116825

JSON: /api/v1/satellites/60487 · /tle

For live sub-satellite position, see the globe view (requires WebGL).

§ Visibility from observer

Set your observer location to see the next 7 days of passes ≥ 10°. The values pass through the URL so the page stays shareable.

No JS? Fill the form by hand. The geolocation button needs JavaScript.